Regional Weather Roundup
Issued by NWS

Home | Current Version | Previous Version | Graphics & Text | Print | Product List | Glossary Off
Versions: 1 2 3 4 5 6 7 8 9 10 11 12 13 14 15 16 17 18 19 20 21 22 23 24 25 26 27 28 29 30 31 32 33 34 35 36 37 38 39 40 41 42 43 44 45 46 47 48 49 50

000
ASUS43 KMKX 270100
RWRWI

WISCONSIN REGIONAL WEATHER ROUNDUP
NATIONAL WEATHER SERVICE MILWAUKEE/SULLIVAN WI
800 PM CDT WED JUL 26 2017

NOTE: "FAIR" INDICATES FEW OR NO CLOUDS BELOW 12,000 FEET WITH NO
SIGNIFICANT WEATHER AND/OR OBSTRUCTIONS TO VISIBILITY.

WIZ001-002-006>008-014>016-023>028-270200-
NORTHWEST WISCONSIN

CITY           SKY/WX    TMP DP  RH WIND       PRES   REMARKS
SUPERIOR ARPT  NOT AVBL
ASHLAND        CLEAR     77  62  59 CALM      29.97S
HAYWARD        PTCLDY    77  62  59 N3        29.99S
SIREN          CLEAR     78  62  57 NW3       29.99R HX  80
CUMBERLAND     CLEAR     75  59  57 NW7       29.99S
RICE LAKE      CLEAR     77  62  59 CALM      30.00R
CHETEK         CLEAR     77  63  61 CALM      29.97F
LADYSMITH      PTCLDY    77  63  61 N5        30.00S
EAU CLAIRE     NOT AVBL
MENOMONIE      CLEAR     78  63  59 NW7       29.97S HX  80
NEW RICHMOND   CLEAR     76  60  56 N6        29.99S
OSCEOLA        CLEAR     79  60  52 N6        30.01S HX  80
$$

WIZ003>005-009-010-017-018-270200-
NORTH CENTRAL WISCONSIN

CITY           SKY/WX    TMP DP  RH WIND       PRES   REMARKS
MANITOWISH WTR CLEAR     74  56  53 NW6       30.00R
ARBOR VITAE    CLEAR     75  59  57 N9        29.99R
WOODRUFF       CLEAR     75  59  57 N9        29.99R
RHINELANDER    PTCLDY    74  61  63 N6        29.99R
EAGLE RIVER    CLEAR     74  53  47 N9        29.99R
LAND O LAKES   CLEAR     74  49  40 N6        30.01R
PHILLIPS       PTCLDY    74  62  65 N3        29.99R
TOMAHAWK         N/A     74  62  65 NW5       29.98S
MEDFORD        CLEAR     74  67  77 CALM      29.98S
MERRILL        CLEAR     75  70  83 W5        29.97S
$$

WIZ029-030-035-036-043>047-270200-
CENTRAL WISCONSIN

CITY           SKY/WX    TMP DP  RH WIND       PRES   REMARKS
WAUSAU         PTCLDY    73  69  87 W5        29.96R
MOSINEE        MOCLDY    73  70  88 W3        29.99R
MARSHFIELD     PTCLDY    72  67  84 NW5       29.97S
STEVENS POINT  MOCLDY    74  68  80 W5        29.97S
WAUPACA        CLOUDY    79  70  73 NW3       29.96S HX  82
WAUTOMA        CLOUDY    76  70  82 NW5       29.97R
WISC RAPIDS    MOCLDY    75  70  84 W3        29.98S
CAMP DOUGLAS   NOT AVBL
$$

WIZ011>013-019>022-031-037>040-048>050-270200-
NORTHEAST WISCONSIN

CITY           SKY/WX    TMP DP  RH WIND       PRES   REMARKS
ANTIGO         MOCLDY    72  68  88 W7        29.98S
SHAWANO        PTCLDY    76  69  79 CALM      29.94F
OCONTO         MOCLDY    76  70  81 SW7       29.93S
STURGEON BAY     N/A     75  72  90 SW8       29.94S
GREEN BAY      CLOUDY    77  74  90 CALM      29.94F
MANITOWOC      NOT AVBL
APPLETON       MOCLDY    75  70  83 W6        29.95S
CLINTONVILLE   MOCLDY   N/A N/A N/A SW3       29.95S
OSHKOSH        CLOUDY    74  70  87 S8        29.95R
$$

WIZ032>034-041-042-053>061-270200-
SOUTHWEST WISCONSIN

CITY           SKY/WX    TMP DP  RH WIND       PRES   REMARKS
LA CROSSE      CLEAR     80  72  76 NW6       29.95R HX  84
SPARTA         PTCLDY    78  69  75 NW5       29.97R
VIROQUA        CLOUDY    77  72  85 CALM      29.98R
BOSCOBEL       CLOUDY    77  73  87 N6        29.96R
PRAIRIE DU CHI CLOUDY    78  70  76 CALM      29.95R HX  81
PLATTEVILLE    CLOUDY    78  76  94 SE3       29.97R HX  80
$$

WIZ056-057-062-063-064-067-068-270200-
SOUTH CENTRAL WISCONSIN

CITY           SKY/WX    TMP DP  RH WIND       PRES   REMARKS
REEDSBURG      CLOUDY    74  73  96 CALM      29.95S
BARABOO/DELLS  CLOUDY    75  69  84 CALM      29.96R
LONE ROCK      NOT AVBL
MINERAL POINT  CLOUDY    77  75  94 E3        29.97R
MADISON        CLOUDY    73  71  93 SE6       29.96R
MIDDLETON      CLOUDY    74  74 100 CALM      29.97S
WATERTOWN      CLOUDY    72  72 100 E6        29.96S
MONROE         LGT RAIN  77  73  88 CALM      29.96R
JANESVILLE     CLOUDY    81  77  89 CALM      29.95S HX  88
$$

WIZ051-052-058>065-066-070>072-270200-
SOUTHEAST WISCONSIN

CITY           SKY/WX    TMP DP  RH WIND       PRES   REMARKS
MILWAUKEE      CLOUDY    75  69  81 SE7       29.97F
WAUKESHA       LGT RAIN  70  70 100 E8        29.99S FOG
MILWAUKEE/TIMM LGT RAIN  72  66  83 CALM      30.00R
RACINE         PTCLDY    74  69  85 NE3       29.99F
KENOSHA        PTCLDY    77  69  76 SE5       29.97F
FOND DU LAC    CLOUDY    73  69  87 S5        29.96S
SHEBOYGAN      LGT RAIN  71  71 100 S9        29.98R FOG
WEST BEND      CLOUDY    70  70 100 SE5       29.98F FOG
JUNEAU         CLOUDY    72  70  95 SE5       29.97F
$$

LSZ147-162-270200-
LAKE SUPERIOR

STATION/POSITION TIME  TEMP    WIND        PRES    WAVE
                       AIR SEA DIR/SP/G            HT/PER
                 (UTC) (F)     (DEG/KT/KT) (MB)    (FT/S)
W MID LAKE BUOY  2350   59 53  250/  8/ 10 1013.5R   1
DEVILS ISLAND    0000   69     230/  8/ 11 1013.9R
SAXON HARBOR     0030   81      CALM  /  2 1014.2S
$$

LMZ867-665-643>646-270200-
LAKE MICHIGAN

STATION/POSITION TIME  TEMP    WIND        PRES    WAVE
                       AIR SEA DIR/SP/G            HT/PER
                 (UTC) (F)     (DEG/KT/KT) (MB)    (FT/S)
CHAMBERS ISLAND  0040   74     210/  6/ 11 1012.5S
S GREEN BAY BUOY 0030   74 72  210/  8/ 10 1013.4F
N MID LAKE BUOY  2350   67 66  200/ 14/ 16 1013.3F   4/ 6
NORTHPORT PIER   0040   74     160/  4/  7 1012.9S
KEWAUNEE LAKESHO 0030   75     250/  3/  6 1013.4R
SHEBOYGAN LAKESH 0000   70     180/ 18/ 19 1013.8R
PORT WASHINGTON  0030   72     220/  2/  7 1015.9S
ATWATER BUOY     2309   70 69  140/ 16/ 19 1014.9F
MILWAUKEE LAKESH 0030   71     150/  5/  6   N/A
S MID LAKE BUOY  2350   73 71  110/  6/  6 1015.5R   1/ 4
KENOSHA   LAKESH 0000   73     190/  4/  7 1014.9
$$

TC  - TEMPERATURE IN CELSIUS
VSB - VISIBILITY IN STATUTE MILES
WCI - WIND CHILL INDEX
HX  - HEAT INDEX





USA.gov is the U.S. government's official web portal to all federal, state and local government web resources and services.